Location: Ch�ze
(42.9000°N, 0.0333°W)
Time: 23:52:35
(UTC+00:00)

Cosmos 1346 Rocket - Pass Details

Date: 24 January 2021
Orbit: 532 x 546 km, 81.2° (Epoch: 24 February)

Event Time Altitude Azimuth Distance (km) Brightness Sun altitude
Rises 18:35:10 0° 168° (SSE) 2,662 6.3 -16.9°
Reaches altitude 10° 18:37:26 10° 159° (SSE) 1,777 5.3 -17.3°
Enters shadow 18:39:50 28° 128° (SE) 1,019 3.8 -17.7°
